When you browse on this site, cookies collect data to enhance your experience and personalize the content and advertising you see.
Visit our Privacy Policy to learn more. By continuing to use the site, you agree to this use of cookies and data.
  • en France
  • Liste des pays
  • À 7 jours
  • Température de l'eau
  • Carte météo
  • Widgets météo
  • user-avatar
    Se connecter

    Météo par heure à Punta Gorda

    Ce jour, 23 Août, Vendredi

    Heure Température Précipitation Vent Pression Humidité
    00:00 +27°C° 0.2 mm 3 m/s 759 mmHg 97%
    01:00 +27°C° 0.2 mm 3 m/s 759 mmHg 97%
    02:00 +27°C° 0.2 mm 2 m/s 759 mmHg 96%
    03:00 +27°C° 0.2 mm 2 m/s 758 mmHg 96%
    04:00 +27°C° 0.1 mm 2 m/s 758 mmHg 97%
    05:00 +27°C° 0.1 mm 1 m/s 759 mmHg 97%
    06:00 +27°C° 0.1 mm 1 m/s 759 mmHg 97%
    07:00 +28°C° 0.1 mm 1 m/s 759 mmHg 93%
    08:00 +29°C° 0.1 mm 1 m/s 759 mmHg 89%
    09:00 +30°C° 0.1 mm 1 m/s 760 mmHg 85%
    10:00 +32°C° 0 mm 1 m/s 759 mmHg 73%
    11:00 +35°C° 0 mm 2 m/s 759 mmHg 61%
    12:00 +37°C° 0 mm 2 m/s 759 mmHg 50%
    13:00 +37°C° 0 mm 3 m/s 758 mmHg 51%
    14:00 +37°C° 0 mm 4 m/s 757 mmHg 52%
    15:00 +37°C° 0 mm 5 m/s 757 mmHg 53%
    16:00 +35°C° 0 mm 5 m/s 757 mmHg 59%
    17:00 +33°C° 0 mm 5 m/s 757 mmHg 66%
    18:00 +30°C° 0 mm 5 m/s 757 mmHg 72%
    19:00 +29°C° 0 mm 4 m/s 758 mmHg 79%
    20:00 +28°C° 0 mm 4 m/s 758 mmHg 87%
    21:00 +26°C° 0 mm 3 m/s 759 mmHg 94%
    22:00 +26°C° 0 mm 3 m/s 759 mmHg 95%
    23:00 +26°C° 0 mm 3 m/s 759 mmHg 95%

    Demain, 24 Août, Samedi

    Heure Température Précipitation Vent Pression Humidité
    00:00 +26°C° 0 mm 2 m/s 759 mmHg 96%
    01:00 +26°C° 0.1 mm 2 m/s 759 mmHg 96%
    02:00 +26°C° 0.1 mm 2 m/s 758 mmHg 96%
    03:00 +26°C° 0.1 mm 1 m/s 758 mmHg 96%
    04:00 +27°C° 0.1 mm 1 m/s 758 mmHg 96%
    05:00 +27°C° 0.1 mm 1 m/s 758 mmHg 96%
    06:00 +27°C° 0.1 mm 1 m/s 758 mmHg 96%
    07:00 +28°C° 0.1 mm 1 m/s 759 mmHg 91%
    08:00 +29°C° 0.1 mm 1 m/s 759 mmHg 86%
    09:00 +30°C° 0.1 mm 1 m/s 760 mmHg 82%
    10:00 +32°C° 0 mm 2 m/s 759 mmHg 72%
    11:00 +35°C° 0 mm 2 m/s 759 mmHg 62%
    12:00 +37°C° 0 mm 2 m/s 758 mmHg 53%
    13:00 +37°C° 0 mm 3 m/s 758 mmHg 52%
    14:00 +37°C° 0 mm 4 m/s 757 mmHg 51%
    15:00 +37°C° 0 mm 5 m/s 757 mmHg 51%
    16:00 +35°C° 0 mm 5 m/s 757 mmHg 59%
    17:00 +33°C° 0 mm 5 m/s 757 mmHg 67%
    18:00 +30°C° 0 mm 5 m/s 757 mmHg 75%
    19:00 +29°C° 0 mm 4 m/s 758 mmHg 81%
    20:00 +28°C° 0 mm 4 m/s 758 mmHg 88%
    21:00 +27°C° 0 mm 3 m/s 759 mmHg 95%
    22:00 +27°C° 0.1 mm 3 m/s 759 mmHg 95%
    23:00 +27°C° 0.1 mm 3 m/s 759 mmHg 95%

    Après-demain, 25 Août, Dimanche

    Heure Température Précipitation Vent Pression Humidité
    00:00 +27°C° 0.1 mm 2 m/s 759 mmHg 95%
    01:00 +27°C° 0.1 mm 2 m/s 758 mmHg 95%
    02:00 +27°C° 0.1 mm 2 m/s 758 mmHg 96%
    03:00 +26°C° 0.1 mm 1 m/s 758 mmHg 96%
    04:00 +26°C° 0.1 mm 1 m/s 758 mmHg 96%
    05:00 +26°C° 0.1 mm 1 m/s 758 mmHg 97%
    06:00 +26°C° 0.1 mm 1 m/s 758 mmHg 97%
    07:00 +27°C° 0.2 mm 1 m/s 758 mmHg 93%
    08:00 +29°C° 0.2 mm 1 m/s 759 mmHg 90%
    09:00 +30°C° 0.2 mm 1 m/s 759 mmHg 86%
    10:00 +32°C° 0.1 mm 2 m/s 758 mmHg 76%
    11:00 +34°C° 0.1 mm 2 m/s 758 mmHg 65%
    12:00 +36°C° 0.1 mm 3 m/s 758 mmHg 55%
    13:00 +36°C° 0 mm 4 m/s 757 mmHg 54%
    14:00 +36°C° 0 mm 4 m/s 756 mmHg 53%
    15:00 +36°C° 0 mm 5 m/s 756 mmHg 53%
    16:00 +34°C° 0 mm 4 m/s 756 mmHg 60%
    17:00 +32°C° 0 mm 4 m/s 756 mmHg 66%
    18:00 +30°C° 0 mm 4 m/s 756 mmHg 73%
    19:00 +29°C° 0 mm 4 m/s 757 mmHg 80%
    20:00 +28°C° 0 mm 4 m/s 758 mmHg 86%
    21:00 +26°C° 0 mm 3 m/s 758 mmHg 93%
    22:00 +26°C° 0.1 mm 3 m/s 758 mmHg 94%
    23:00 +26°C° 0.1 mm 2 m/s 758 mmHg 94%

    26 Août, Lundi

    Heure Température Précipitation Vent Pression Humidité
    00:00 +26°C° 0.1 mm 2 m/s 758 mmHg 95%
    01:00 +26°C° 0.3 mm 2 m/s 757 mmHg 95%
    02:00 +26°C° 0.3 mm 2 m/s 757 mmHg 95%
    03:00 +26°C° 0.3 mm 1 m/s 757 mmHg 96%
    04:00 +26°C° 0.1 mm 1 m/s 757 mmHg 96%
    05:00 +27°C° 0.1 mm 1 m/s 757 mmHg 96%
    06:00 +27°C° 0.1 mm 1 m/s 757 mmHg 95%
    07:00 +29°C° 0.1 mm 1 m/s 758 mmHg 86%
    08:00 +31°C° 0.1 mm 1 m/s 758 mmHg 77%
    09:00 +33°C° 0.1 mm 1 m/s 758 mmHg 67%
    10:00 +33°C° 0.1 mm 1 m/s 758 mmHg 66%
    11:00 +34°C° 0.1 mm 1 m/s 757 mmHg 65%
    12:00 +35°C° 0.1 mm 1 m/s 757 mmHg 64%
    13:00 +36°C° 0.2 mm 2 m/s 756 mmHg 62%
    14:00 +36°C° 0.2 mm 3 m/s 755 mmHg 60%
    15:00 +36°C° 0.2 mm 4 m/s 755 mmHg 59%
    16:00 +35°C° 0 mm 5 m/s 755 mmHg 64%
    17:00 +33°C° 0 mm 5 m/s 755 mmHg 69%
    18:00 +32°C° 0 mm 6 m/s 756 mmHg 74%
    19:00 +30°C° 0.1 mm 5 m/s 756 mmHg 80%
    20:00 +29°C° 0.1 mm 5 m/s 757 mmHg 86%
    21:00 +28°C° 0.1 mm 4 m/s 758 mmHg 92%
    22:00 +27°C° 0.4 mm 4 m/s 758 mmHg 94%
    23:00 +27°C° 0.4 mm 3 m/s 758 mmHg 95%

    27 Août, Mardi

    Heure Température Précipitation Vent Pression Humidité
    00:00 +27°C° 0.4 mm 3 m/s 758 mmHg 97%
    01:00 +27°C° 0.4 mm 3 m/s 757 mmHg 96%
    02:00 +27°C° 0.4 mm 3 m/s 757 mmHg 96%
    03:00 +27°C° 0.4 mm 3 m/s 757 mmHg 95%
    04:00 +27°C° 0.1 mm 2 m/s 757 mmHg 96%
    05:00 +27°C° 0.1 mm 2 m/s 757 mmHg 96%
    06:00 +27°C° 0.1 mm 2 m/s 758 mmHg 96%
    07:00 +28°C° 0 mm 2 m/s 758 mmHg 90%
    08:00 +30°C° 0 mm 1 m/s 758 mmHg 84%
    09:00 +31°C° 0 mm 1 m/s 758 mmHg 77%
    10:00 +32°C° 0.2 mm 1 m/s 758 mmHg 74%
    11:00 +33°C° 0.2 mm 1 m/s 758 mmHg 70%
    12:00 +34°C° 0.2 mm 1 m/s 757 mmHg 66%
    13:00 +36°C° 0.1 mm 3 m/s 757 mmHg 64%
    14:00 +36°C° 0.1 mm 4 m/s 756 mmHg 61%
    15:00 +36°C° 0.1 mm 6 m/s 756 mmHg 58%
    16:00 +34°C° 0 mm 6 m/s 756 mmHg 64%
    17:00 +33°C° 0 mm 5 m/s 756 mmHg 70%
    18:00 +30°C° 0 mm 5 m/s 757 mmHg 76%
    19:00 +29°C° 0.3 mm 5 m/s 757 mmHg 82%
    20:00 +28°C° 0.3 mm 4 m/s 758 mmHg 88%
    21:00 +27°C° 0.3 mm 4 m/s 759 mmHg 94%
    22:00 +27°C° 1 mm 4 m/s 759 mmHg 95%
    23:00 +27°C° 1 mm 3 m/s 759 mmHg 96%

    28 Août, Mercredi

    Heure Température Précipitation Vent Pression Humidité
    00:00 +27°C° 1 mm 3 m/s 759 mmHg 96%
    01:00 +27°C° 0.8 mm 3 m/s 758 mmHg 96%
    02:00 +27°C° 0.8 mm 3 m/s 758 mmHg 97%
    03:00 +26°C° 0.8 mm 2 m/s 758 mmHg 97%
    04:00 +26°C° 0.1 mm 2 m/s 758 mmHg 97%
    05:00 +26°C° 0.1 mm 2 m/s 758 mmHg 97%
    06:00 +26°C° 0.1 mm 2 m/s 759 mmHg 97%
    07:00 +28°C° 0 mm 2 m/s 759 mmHg 91%
    08:00 +29°C° 0 mm 2 m/s 759 mmHg 86%
    09:00 +31°C° 0 mm 2 m/s 759 mmHg 80%
    10:00 +32°C° 0.3 mm 2 m/s 759 mmHg 76%
    11:00 +32°C° 0.3 mm 2 m/s 759 mmHg 71%
    12:00 +34°C° 0.3 mm 2 m/s 758 mmHg 67%
    13:00 +35°C° 0 mm 3 m/s 758 mmHg 63%
    14:00 +35°C° 0 mm 4 m/s 757 mmHg 59%
    15:00 +35°C° 0 mm 5 m/s 757 mmHg 55%
    16:00 +34°C° 0 mm 5 m/s 757 mmHg 62%
    17:00 +32°C° 0 mm 5 m/s 757 mmHg 69%
    18:00 +30°C° 0 mm 5 m/s 758 mmHg 76%
    19:00 +29°C° 0.4 mm 4 m/s 758 mmHg 81%
    20:00 +28°C° 0.4 mm 4 m/s 759 mmHg 87%
    21:00 +27°C° 0.4 mm 4 m/s 759 mmHg 93%
    22:00 +27°C° 1 mm 4 m/s 759 mmHg 93%
    23:00 +26°C° 1 mm 3 m/s 759 mmHg 94%
    Voir plus